Mount Airy, NC

3:07 PM EST on December 05, 2019 (GMT -0500)
Mount Airy-Surry County

Weather History for KMWK - June, 2019

Change the Weather History Date:

Monday, June 3, 2019

  Actual Average (WUND) Record (WUND)
Temperature  
Mean Temperature 68 °F -  
Max Temperature 78 °F - - (-1)
Min Temperature 59 °F - - (-1)
Cooling Degree Days 4    
Growing Degree Days 18 (Base 50)    
Moisture  
Dew Point 53 °F    
Average Humidity 62    
Maximum Humidity 91    
Minimum Humidity 27    
Precipitation  
Precipitation 0.02 in - - ()
Sea Level Pressure  
Sea Level Pressure 30.03 in    
Wind  
Wind Speed 3 mph ()    
Max Wind Speed 10 mph    
Max Gust Speed 17 mph    
Visibility 9.3 miles    
Events      
Averages and records for this station are not official NWS values.
T = Trace of Precipitation, MM = Missing Value Source: Averaged Metar Reports

Daily Weather History Graph

Daily Weather History Graph

Search for Another Location

Airport or City:

Astronomy

Jun. 03, 2019 Rise Set
Actual Time 6:05 AM EDT 8:35 PM EDT
Civil Twilight 5:35 AM EDT 9:06 PM EDT
Nautical Twilight 4:57 AM EDT 9:43 PM EDT
Astronomical Twilight 4:16 AM EDT 10:24 PM EDT
Moon 6:22 AM EDT (6/3) 9:00 PM EDT (6/3)
Length of Visible Light 15h 31m
Length of Day
14h 30m
New Moon, 0% of the Moon is Illuminated
Jun 3
New Moon
Jun 10
First Quarter
Jun 17
Full
Jun 25
Last Quarter
Jul 2
New

Hourly Weather History & Observations

Time (EDT) Temp. Dew Point Humidity Pressure Visibility Wind Dir Wind Speed Gust Speed Precip Events Conditions
12:00 AM 63.9 °F 61.2 °F 91% 29.91 in 7.0 mi North 4.6 mph - N/A   Clear
12:40 AM 63.9 °F 61.0 °F 90% 29.92 in 7.0 mi Calm Calm - N/A   Clear
1:00 AM 63.0 °F 60.3 °F 91% 29.92 in 5.0 mi Calm Calm - N/A   Clear
1:20 AM 63.0 °F 60.3 °F 91% 29.92 in 5.0 mi Calm Calm - N/A   Clear
1:40 AM 62.4 °F 59.9 °F 91% 29.92 in 5.0 mi Calm Calm - N/A   Clear
2:20 AM 63.3 °F 60.1 °F 89% 29.92 in 10.0 mi Calm Calm - N/A   Clear
2:40 AM 62.2 °F 59.5 °F 91% 29.91 in 7.0 mi Calm Calm - N/A   Clear
3:00 AM 61.7 °F 59.0 °F 91% 29.91 in 10.0 mi Calm Calm - N/A   Clear
3:20 AM 61.7 °F 59.0 °F 91% 29.91 in 10.0 mi Calm Calm - N/A   Clear
3:40 AM 60.4 °F 57.9 °F 91% 29.92 in 5.0 mi Calm Calm - N/A   Clear
4:00 AM 60.6 °F 58.1 °F 91% 29.92 in 7.0 mi Calm Calm - N/A   Clear
4:20 AM 60.1 °F 57.6 °F 91% 29.92 in 7.0 mi Calm Calm - N/A   Clear
4:40 AM 60.3 °F 57.6 °F 91% 29.94 in 7.0 mi Calm Calm - N/A   Clear
5:00 AM 60.4 °F 57.7 °F 91% 29.94 in 10.0 mi Calm Calm - N/A   Clear
5:20 AM 60.1 °F 57.4 °F 91% 29.95 in 7.0 mi Calm Calm - N/A   Clear
5:40 AM 60.3 °F 57.6 °F 91% 29.96 in 7.0 mi Calm Calm - N/A   Clear
6:00 AM 59.9 °F 57.2 °F 91% 29.96 in 7.0 mi Calm Calm - N/A   Clear
6:20 AM 59.9 °F 57.2 °F 91% 29.97 in 10.0 mi Calm Calm - N/A   Clear
6:40 AM 61.3 °F 58.6 °F 91% 29.98 in 10.0 mi Calm Calm - N/A   Clear
7:00 AM 62.6 °F 59.4 °F 89% 29.99 in 10.0 mi Calm Calm - N/A   Clear
7:20 AM 62.2 °F 59.5 °F 91% 30.00 in 10.0 mi Calm Calm - N/A   Clear
7:40 AM 65.1 °F 61.5 °F 88% 30.01 in 10.0 mi WNW 3.5 mph - N/A   Clear
8:00 AM 66.9 °F 61.9 °F 84% 30.00 in 10.0 mi Calm Calm - N/A   Clear
8:20 AM 68.9 °F 63.0 °F 81% 30.02 in 10.0 mi Calm Calm - N/A   Clear
8:40 AM 69.8 °F 63.5 °F 80% 30.03 in 10.0 mi NW 4.6 mph - N/A   Clear
9:00 AM 70.7 °F 63.5 °F 78% 30.03 in 10.0 mi NW 5.8 mph - N/A   Clear
9:20 AM 70.9 °F 60.3 °F 69% 30.03 in 10.0 mi NNW 6.9 mph - N/A   Clear
9:40 AM 71.1 °F 58.5 °F 64% 30.04 in 10.0 mi NNW 6.9 mph - 0.02 in   Clear
10:00 AM 72.0 °F 60.1 °F 66% 30.04 in 10.0 mi NW 9.2 mph - N/A   Clear
10:20 AM 72.5 °F 59.0 °F 62% 30.05 in 10.0 mi North 5.8 mph - N/A   Clear
10:40 AM 72.9 °F 59.2 °F 62% 30.05 in 10.0 mi NNW 5.8 mph - N/A   Clear
11:00 AM 73.2 °F 56.5 °F 56% 30.07 in 10.0 mi North 8.1 mph - N/A   Clear
11:20 AM 74.5 °F 56.5 °F 53% 30.07 in 7.0 mi NNW 8.1 mph - N/A   Clear
11:40 AM 74.5 °F 56.5 °F 53% 30.07 in 10.0 mi North 8.1 mph - N/A   Clear
12:00 PM 75.7 °F 55.8 °F 50% 30.08 in 10.0 mi NNW 10.4 mph 16.1 mph N/A   Clear
12:20 PM 75.4 °F 54.9 °F 49% 30.08 in 10.0 mi NNW 9.2 mph 17.3 mph N/A   Clear
12:40 PM 75.6 °F 55.0 °F 49% 30.07 in 10.0 mi WNW 5.8 mph - N/A   Clear
1:00 PM 76.8 °F 54.9 °F 46% 30.07 in 10.0 mi NNW 8.1 mph - N/A   Clear
1:20 PM 76.6 °F 54.5 °F 46% 30.07 in 10.0 mi WNW 9.2 mph - N/A   Scattered Clouds
1:40 PM 76.6 °F 52.2 °F 42% 30.07 in 10.0 mi NW 9.2 mph - N/A   Clear
2:00 PM 77.0 °F 52.0 °F 42% 30.07 in 10.0 mi North 9.2 mph - N/A   Scattered Clouds
2:20 PM 78.1 °F 50.2 °F 38% 30.07 in 10.0 mi WNW 8.1 mph - N/A   Clear
2:40 PM 78.1 °F 50.2 °F 38% 30.06 in 10.0 mi NW 4.6 mph - N/A   Clear
3:20 PM 78.8 °F 50.5 °F 37% 30.06 in 10.0 mi NNW 5.8 mph - N/A   Clear
3:40 PM 78.3 °F 47.1 °F 33% 30.06 in 10.0 mi NNW 6.9 mph - N/A   Clear
4:00 PM 78.3 °F 48.2 °F 35% 30.06 in 10.0 mi NW 5.8 mph - N/A   Clear
4:20 PM 78.4 °F 44.6 °F 30% 30.06 in 10.0 mi North 5.8 mph - N/A   Clear
4:40 PM 78.1 °F 45.3 °F 31% 30.05 in 10.0 mi North 5.8 mph - N/A   Clear
5:00 PM 78.1 °F 41.2 °F 27% 30.06 in 10.0 mi NNE 6.9 mph - N/A   Clear
5:20 PM 77.5 °F 41.2 °F 27% 30.06 in 10.0 mi North 8.1 mph - N/A   Clear
5:40 PM 77.5 °F 41.0 °F 27% 30.06 in 10.0 mi North 8.1 mph - N/A   Clear
6:00 PM 76.8 °F 42.3 °F 29% 30.06 in 10.0 mi North 5.8 mph - N/A   Clear
6:20 PM 76.6 °F 43.0 °F 30% 30.07 in 10.0 mi North 5.8 mph - N/A   Clear
6:40 PM 76.1 °F 42.8 °F 30% 30.07 in 10.0 mi NNW 5.8 mph - N/A   Clear
7:00 PM 75.2 °F 43.7 °F 32% 30.07 in 10.0 mi North 5.8 mph - N/A   Clear
7:20 PM 74.8 °F 45.0 °F 34% 30.07 in 10.0 mi Calm Calm - N/A   Clear
7:40 PM 73.6 °F 44.4 °F 35% 30.08 in 10.0 mi NNW 3.5 mph - N/A   Clear
8:00 PM 72.5 °F 43.5 °F 35% 30.09 in 10.0 mi Calm Calm - N/A   Clear
8:20 PM 71.4 °F 45.3 °F 39% 30.09 in 10.0 mi Calm Calm - N/A   Clear
8:40 PM 70.3 °F 44.8 °F 40% 30.10 in 10.0 mi Calm Calm - N/A   Clear
9:00 PM 68.7 °F 48.2 °F 48% 30.10 in 10.0 mi Calm Calm - N/A   Clear
9:20 PM 68.0 °F 46.4 °F 46% 30.11 in 10.0 mi North 3.5 mph - N/A   Clear
9:40 PM 68.2 °F 45.0 °F 43% 30.13 in 10.0 mi Calm Calm - N/A   Clear
10:00 PM 65.3 °F 49.6 °F 57% 30.14 in 10.0 mi North 3.5 mph - N/A   Clear
10:20 PM 65.7 °F 47.5 °F 52% 30.15 in 10.0 mi NW 4.6 mph - N/A   Clear
10:40 PM 64.6 °F 50.2 °F 60% 30.15 in 10.0 mi NNE 3.5 mph - N/A   Clear
11:00 PM 63.9 °F 49.6 °F 60% 30.16 in 10.0 mi Calm Calm - N/A   Clear
11:20 PM 61.3 °F 51.8 °F 71% 30.16 in 10.0 mi Calm Calm - N/A   Clear
11:40 PM 62.6 °F 48.4 °F 60% 30.17 in 10.0 mi Calm Calm - N/A   Clear